Time,TemperatureF,DewpointF,PressureIn,WindDirection,WindDirectionDegrees,WindSpeedMPH,WindSpeedGustMPH,Humidity,HourlyPrecipIn,Conditions,Clouds,dailyrainin,SoftwareType,DateUTC
2013-09-13 00:14:00,65.0,65.0,29.70,ESE,104,0.0,0.0,99,0.05,,,0.85,,2013-09-13 04:14:00,
2013-09-13 00:25:00,65.0,65.0,29.70,ESE,105,0.0,0.0,99,0.04,,,0.85,,2013-09-13 04:25:00,
2013-09-13 00:44:00,65.0,65.0,29.69,ESE,104,0.0,1.0,100,0.04,,,0.85,,2013-09-13 04:44:00,
2013-09-13 00:54:00,64.0,64.0,29.69,West,268,0.0,1.0,99,0.02,,,0.85,,2013-09-13 04:54:00,
2013-09-13 01:13:00,64.0,64.0,29.69,West,269,0.0,1.0,99,0.02,,,0.86,,2013-09-13 05:13:00,
2013-09-13 01:22:00,64.0,64.0,29.68,West,269,0.0,0.0,99,0.01,,,0.86,,2013-09-13 05:22:00,
2013-09-13 01:43:00,63.0,63.0,29.62,West,269,0.0,0.0,99,0.01,,,0.86,,2013-09-13 05:43:00,
2013-09-13 01:53:00,63.0,63.0,29.68,West,268,0.0,1.0,99,0.01,,,0.86,,2013-09-13 05:53:00,
2013-09-13 02:12:00,63.0,63.0,29.68,West,269,0.0,1.0,99,0.00,,,0.86,,2013-09-13 06:12:00,
2013-09-13 02:22:00,63.0,63.0,29.69,WSW,242,1.0,2.0,100,0.00,,,0.86,,2013-09-13 06:22:00,
2013-09-13 02:52:00,64.0,64.0,29.67,West,273,1.0,3.0,99,0.02,,,0.88,,2013-09-13 06:52:00,
2013-09-13 03:11:00,64.0,64.0,29.67,West,269,1.0,6.0,99,0.02,,,0.88,,2013-09-13 07:11:00,
2013-09-13 03:22:00,64.0,63.0,29.66,SW,236,0.0,4.0,98,0.01,,,0.88,,2013-09-13 07:22:00,
2013-09-13 03:43:00,64.0,63.0,29.66,WSW,249,1.0,7.0,98,0.01,,,0.88,,2013-09-13 07:43:00,
2013-09-13 03:52:00,65.0,64.0,29.65,West,263,3.0,7.0,97,0.00,,,0.88,,2013-09-13 07:52:00,
2013-09-13 04:11:00,64.0,63.0,29.65,WSW,246,3.0,7.0,97,0.00,,,0.88,,2013-09-13 08:11:00,
2013-09-13 04:22:00,64.0,63.0,29.65,West,276,3.0,12.0,97,0.00,,,0.88,,2013-09-13 08:22:00,
2013-09-13 04:42:00,64.0,63.0,29.59,West,261,0.0,9.0,96,0.00,,,0.88,,2013-09-13 08:42:00,
2013-09-13 04:52:00,64.0,63.0,29.59,West,269,1.0,6.0,96,0.00,,,0.88,,2013-09-13 08:52:00,
2013-09-13 05:12:00,64.0,63.0,29.64,West,268,1.0,3.0,97,0.00,,,0.88,,2013-09-13 09:12:00,
2013-09-13 05:21:00,64.0,63.0,29.64,WNW,289,0.0,2.0,98,0.00,,,0.88,,2013-09-13 09:21:00,
2013-09-13 05:43:00,63.0,62.0,29.64,WSW,255,4.0,7.0,98,0.00,,,0.88,,2013-09-13 09:43:00,
2013-09-13 05:54:00,64.0,63.0,29.65,SW,232,3.0,8.0,98,0.00,,,0.88,,2013-09-13 09:54:00,
2013-09-13 06:13:00,63.0,62.0,29.59,SW,231,3.0,9.0,98,0.00,,,0.88,,2013-09-13 10:13:00,
2013-09-13 06:23:00,64.0,63.0,29.66,SSW,208,3.0,7.0,97,0.00,,,0.88,,2013-09-13 10:23:00,
2013-09-13 06:42:00,63.0,62.0,29.60,SW,232,4.0,10.0,97,0.00,,,0.88,,2013-09-13 10:42:00,
2013-09-13 06:53:00,64.0,63.0,29.66,WNW,289,2.0,6.0,97,0.00,,,0.88,,2013-09-13 10:53:00,
2013-09-13 07:12:00,64.0,63.0,29.66,West,260,1.0,6.0,97,0.00,,,0.88,,2013-09-13 11:12:00,
2013-09-13 07:22:00,64.0,63.0,29.66,NW,326,2.0,4.0,98,0.00,,,0.88,,2013-09-13 11:22:00,
2013-09-13 07:42:00,63.0,63.0,29.61,NW,310,0.0,3.0,99,0.00,,,0.88,,2013-09-13 11:42:00,
2013-09-13 07:52:00,62.0,61.0,29.62,NW,306,0.0,2.0,97,0.00,,,0.88,,2013-09-13 11:52:00,
2013-09-13 08:12:00,63.0,62.0,29.67,NNW,336,0.0,3.0,98,0.00,,,0.88,,2013-09-13 12:12:00,
2013-09-13 08:22:00,63.0,62.0,29.67,West,267,1.0,2.0,98,0.00,,,0.83,,2013-09-13 12:22:00,
2013-09-13 08:42:00,63.0,62.0,29.67,West,274,1.0,2.0,98,0.00,,,0.83,,2013-09-13 12:42:00,
2013-09-13 08:52:00,63.0,62.0,29.67,West,276,0.0,3.0,97,0.00,,,0.83,,2013-09-13 12:52:00,
2013-09-13 09:11:00,64.0,62.0,29.67,North,360,1.0,2.0,94,0.00,,,0.83,,2013-09-13 13:11:00,
2013-09-13 09:22:00,64.0,62.0,29.67,NNW,336,0.0,2.0,94,0.00,,,0.82,,2013-09-13 13:22:00,
2013-09-13 09:52:00,64.0,62.0,29.67,WNW,292,2.0,3.0,94,0.00,,,0.82,,2013-09-13 13:52:00,
2013-09-13 10:11:00,65.0,63.0,29.68,WNW,282,2.0,3.0,93,0.00,,,0.82,,2013-09-13 14:11:00,
2013-09-13 10:22:00,65.0,62.0,29.67,West,281,2.0,4.0,91,0.00,,,0.80,,2013-09-13 14:22:00,
2013-09-13 10:42:00,65.0,62.0,29.67,WNW,289,2.0,4.0,91,0.00,,,0.80,,2013-09-13 14:42:00,
2013-09-13 10:52:00,65.0,62.0,29.62,NW,317,2.0,5.0,91,0.00,,,0.80,,2013-09-13 14:52:00,
2013-09-13 11:11:00,65.0,62.0,29.62,WNW,295,2.0,8.0,90,0.00,,,0.80,,2013-09-13 15:11:00,
2013-09-13 11:22:00,65.0,62.0,29.67,NNW,332,2.0,6.0,91,0.00,,,0.76,,2013-09-13 15:22:00,
2013-09-13 11:43:00,64.0,61.0,29.68,NW,314,3.0,7.0,90,0.00,,,0.76,,2013-09-13 15:43:00,
2013-09-13 11:53:00,64.0,61.0,29.67,NW,308,2.0,4.0,91,0.00,,,0.76,,2013-09-13 15:53:00,
2013-09-13 12:12:00,65.0,62.0,29.68,NNW,338,2.0,6.0,90,0.00,,,0.76,,2013-09-13 16:12:00,
2013-09-13 12:24:00,65.0,62.0,29.67,NNE,23,3.0,12.0,89,0.00,,,0.76,,2013-09-13 16:24:00,
2013-09-13 12:43:00,63.0,60.0,29.68,WNW,283,3.0,5.0,91,0.00,,,0.76,,2013-09-13 16:43:00,
2013-09-13 12:54:00,63.0,60.0,29.68,NW,320,2.0,4.0,91,0.00,,,0.76,,2013-09-13 16:54:00,
2013-09-13 13:13:00,62.0,60.0,29.69,WSW,242,5.0,9.0,92,0.01,,,0.77,,2013-09-13 17:13:00,
2013-09-13 13:24:00,61.0,60.0,29.69,NNW,346,2.0,9.0,96,0.04,,,0.80,,2013-09-13 17:24:00,
2013-09-13 13:44:00,61.0,60.0,29.68,WNW,289,2.0,5.0,96,0.04,,,0.80,,2013-09-13 17:44:00,
2013-09-13 13:53:00,62.0,61.0,29.68,NW,310,3.0,5.0,95,0.04,,,0.80,,2013-09-13 17:53:00,
2013-09-13 14:12:00,61.0,59.0,29.63,WNW,283,3.0,7.0,94,0.02,,,0.80,,2013-09-13 18:12:00,
2013-09-13 14:22:00,61.0,60.0,29.63,NNW,347,3.0,8.0,95,0.00,,,0.80,,2013-09-13 18:22:00,
2013-09-13 14:42:00,61.0,59.0,29.68,NNE,26,3.0,11.0,94,0.00,,,0.80,,2013-09-13 18:42:00,
2013-09-13 14:52:00,61.0,58.0,29.68,NNW,341,5.0,15.0,91,0.00,,,0.80,,2013-09-13 18:52:00,
2013-09-13 15:11:00,61.0,59.0,29.68,West,279,3.0,10.0,92,0.00,,,0.80,,2013-09-13 19:11:00,
2013-09-13 15:22:00,62.0,59.0,29.68,SW,231,4.0,11.0,91,0.00,,,0.80,,2013-09-13 19:22:00,
2013-09-13 15:43:00,62.0,58.0,29.69,West,277,4.0,11.0,88,0.00,,,0.80,,2013-09-13 19:43:00,
2013-09-13 15:52:00,61.0,58.0,29.70,West,263,6.0,11.0,89,0.00,,,0.80,,2013-09-13 19:52:00,
2013-09-13 16:11:00,60.0,57.0,29.70,NW,315,5.0,11.0,91,0.00,,,0.80,,2013-09-13 20:11:00,
2013-09-13 16:22:00,60.0,58.0,29.70,WSW,254,5.0,8.0,93,0.00,,,0.80,,2013-09-13 20:22:00,
2013-09-13 16:52:00,59.0,58.0,29.71,NNE,29,3.0,6.0,96,0.00,,,0.80,,2013-09-13 20:52:00,
2013-09-13 17:12:00,58.0,56.0,29.66,NNW,327,3.0,9.0,94,0.00,,,0.80,,2013-09-13 21:12:00,
2013-09-13 17:22:00,58.0,56.0,29.67,NNW,331,5.0,9.0,93,0.00,,,0.48,,2013-09-13 21:22:00,
2013-09-13 17:54:00,59.0,56.0,29.72,NE,43,6.0,11.0,90,0.00,,,0.48,,2013-09-13 21:54:00,
2013-09-13 18:13:00,59.0,56.0,29.72,NW,318,3.0,12.0,91,0.00,,,0.48,,2013-09-13 22:13:00,
2013-09-13 18:24:00,58.0,56.0,29.73,West,276,3.0,7.0,93,0.00,,,0.26,,2013-09-13 22:24:00,
2013-09-13 18:43:00,58.0,56.0,29.73,North,353,4.0,8.0,93,0.00,,,0.26,,2013-09-13 22:43:00,
2013-09-13 18:54:00,57.0,55.0,29.73,WSW,254,4.0,9.0,94,0.00,,,0.26,,2013-09-13 22:54:00,
2013-09-13 19:12:00,57.0,55.0,29.73,NW,305,3.0,7.0,94,0.00,,,0.26,,2013-09-13 23:12:00,
2013-09-13 19:22:00,56.0,55.0,29.74,West,267,3.0,7.0,95,0.00,,,0.25,,2013-09-13 23:22:00,
2013-09-13 19:53:00,55.0,54.0,29.76,WNW,295,4.0,7.0,95,0.00,,,0.25,,2013-09-13 23:53:00,
2013-09-13 20:12:00,55.0,54.0,29.74,West,276,3.0,8.0,95,0.00,,,0.25,,2013-09-14 00:12:00,
2013-09-13 20:22:00,54.0,52.0,29.75,WSW,246,4.0,10.0,94,0.00,,,0.23,,2013-09-14 00:22:00,
2013-09-13 20:42:00,55.0,54.0,29.79,NW,320,4.0,7.0,95,0.00,,,0.23,,2013-09-14 00:42:00,
2013-09-13 20:53:00,55.0,54.0,29.80,West,268,2.0,6.0,95,0.00,,,0.23,,2013-09-14 00:53:00,
2013-09-13 21:12:00,54.0,53.0,29.80,WNW,302,2.0,8.0,96,0.00,,,0.23,,2013-09-14 01:12:00,
2013-09-13 21:22:00,54.0,53.0,29.79,NNW,345,4.0,7.0,96,0.00,,,0.18,,2013-09-14 01:22:00,
2013-09-13 21:42:00,54.0,53.0,29.80,SW,225,4.0,8.0,96,0.00,,,0.18,,2013-09-14 01:42:00,
2013-09-13 21:52:00,54.0,53.0,29.80,WSW,257,4.0,9.0,96,0.00,,,0.18,,2013-09-14 01:52:00,
2013-09-13 22:12:00,54.0,53.0,29.80,NW,306,3.0,6.0,96,0.00,,,0.18,,2013-09-14 02:12:00,
2013-09-13 22:22:00,53.0,52.0,29.78,NNE,25,3.0,9.0,95,0.00,,,0.18,,2013-09-14 02:22:00,
2013-09-13 22:42:00,54.0,53.0,29.82,West,280,3.0,8.0,95,0.00,,,0.18,,2013-09-14 02:42:00,
2013-09-13 22:52:00,53.0,51.0,29.82,WNW,293,4.0,8.0,94,0.00,,,0.18,,2013-09-14 02:52:00,
2013-09-13 23:12:00,53.0,51.0,29.82,West,281,3.0,7.0,94,0.00,,,0.18,,2013-09-14 03:12:00,
2013-09-13 23:22:00,53.0,51.0,29.78,WSW,254,3.0,6.0,94,0.00,,,0.12,,2013-09-14 03:22:00,
2013-09-13 23:44:00,53.0,51.0,29.78,West,270,3.0,7.0,94,0.00,,,0.12,,2013-09-14 03:44:00,
2013-09-13 23:55:00,53.0,51.0,29.82,WSW,249,2.0,6.0,93,0.00,,,0.12,,2013-09-14 03:55:00,